Stations météo

réclame
Mon MeteoGroup
South Uist Range, Grande-Bretagne (3023): Température de l'air & dewpoint: 18.10.2018 06:00:00 - 24.10.2018 06:00:00 (BST)South Uist Range, Grande-Bretagne (3023): Température de l'air -20cm & Température de l'air -100cm: 18.10.2018 06:00:00 - 24.10.2018 06:00:00 (BST)South Uist Range, Grande-Bretagne (3023): Vitesse du vent & gusts: 18.10.2018 06:00:00 - 24.10.2018 06:00:00 (BST)South Uist Range, Grande-Bretagne (3023): Direction du vent: 18.10.2018 06:00:00 - 24.10.2018 06:00:00 (BST)South Uist Range, Grande-Bretagne (3023): reduced air pressure: 18.10.2018 06:00:00 - 24.10.2018 06:00:00 (BST)South Uist Range, Grande-Bretagne (3023): visibility: 18.10.2018 06:00:00 - 24.10.2018 06:00:00 (BST)South Uist Range, Grande-Bretagne (3023): Quantités de précipitations: 18.10.2018 06:00:00 - 24.10.2018 06:00:00 (BST)
Date & Time tt [°C] td [°C] tt -20cm [°C] tt -100cm [°C] ff [km/h] ff [knt] fx [km/h] fx [knt] dd ppp [hPa] vv [km] rr [mm]
24.10.2018 06:00:00 10,2 9,6 - - 37 20 52 28 W 1026,5 3,6 -
24.10.2018 05:00:00 10,3 9,8 - - 37 20 52 28 W 1026,9 1,9 0,0
24.10.2018 04:00:00 10,5 10,0 - - 37 20 50 27 W 1027,0 2,0 0,2
24.10.2018 03:00:00 10,7 10,3 - - 34 18 48 26 W 1026,9 4,1 0,0
24.10.2018 02:00:00 10,9 10,5 - - 35 19 48 26 W 1027,2 9 0,0
24.10.2018 01:00:00 10,9 10,3 - - 37 20 55 30 W 1027,3 2,0 0,0
24.10.2018 00:00:00 11,0 10,4 - - 41 22 55 30 W 1027,2 5 0,0
23.10.2018 23:00:00 11,0 10,3 - - 46 25 65 35 W 1026,9 5 0,0
23.10.2018 22:00:00 11,0 10,3 - - 50 27 68 37 W 1026,8 3,8 0,0
23.10.2018 21:00:00 11,5 10,2 - - 50 27 68 37 W 1026,4 5 0,0
23.10.2018 20:00:00 11,6 10,1 - - 44 24 65 35 W 1026,2 5 0,0
23.10.2018 19:00:00 11,5 10,2 - - 48 26 74 40 W 1025,7 5 0,0
23.10.2018 18:00:00 11,6 10,7 - - 54 29 72 39 W 1024,6 4,0 0,0
23.10.2018 17:00:00 11,8 11,1 - - 48 26 63 34 W 1024,6 2,8 0,0
23.10.2018 16:00:00 11,8 11,2 - - 50 27 72 39 W 1024,5 4,8 0,0
23.10.2018 15:00:00 11,6 11,1 - - 48 26 67 36 W 1024,8 2,5 0,0
23.10.2018 14:00:00 11,6 11,0 - - 52 28 68 37 W 1024,9 4,4 0,0
23.10.2018 13:00:00 11,5 11,0 - - 44 24 59 32 W 1025,1 4,3 0,0
23.10.2018 12:00:00 11,5 11,0 - - 42 23 59 32 W 1025,4 3,1 0,0
23.10.2018 11:00:00 11,5 10,9 - - 46 25 61 33 W 1025,1 3,8 0,0
23.10.2018 10:00:00 11,3 10,8 10,7 11,0 44 24 65 35 W 1024,7 3,2 0,0
23.10.2018 09:00:00 11,3 10,7 - - 50 27 68 37 W 1024,3 3,1 0,0
23.10.2018 08:00:00 11,3 10,4 - - 48 26 70 38 W 1023,9 4,6 0,0
23.10.2018 07:00:00 11,4 10,4 - - 54 29 72 39 W 1024,0 5 0,4
23.10.2018 06:00:00 11,0 10,0 - - 57 31 85 46 W 1023,9 1,8 0,2
23.10.2018 05:00:00 11,3 9,1 - - 61 33 81 44 W 1023,7 4,9 0,0
23.10.2018 04:00:00 11,5 8,8 - - 59 32 83 45 W 1024,1 5 0,0
23.10.2018 03:00:00 11,4 8,5 - - 61 33 85 46 W 1024,1 6 0,0
23.10.2018 02:00:00 11,5 8,4 - - 65 35 85 46 W 1024,8 6 0,0
23.10.2018 01:00:00 11,5 8,9 - - 63 34 87 47 W 1025,0 6 0,0
23.10.2018 00:00:00 11,6 9,0 - - 61 33 83 45 W 1025,3 5 0,0
22.10.2018 23:00:00 11,6 9,0 - - 61 33 85 46 W 1025,9 6 0,0
22.10.2018 22:00:00 11,6 8,8 - - 59 32 81 44 W 1026,2 6 0,0
22.10.2018 21:00:00 11,7 8,9 - - 57 31 80 43 W 1027,3 7 0,0
22.10.2018 20:00:00 11,7 8,6 - - 63 34 80 43 W 1027,6 7 0,0
22.10.2018 19:00:00 11,5 8,6 - - 57 31 81 44 W 1027,3 6 0,0
22.10.2018 18:00:00 11,5 8,7 - - 55 30 76 41 WSW 1027,7 6 0,0
22.10.2018 17:00:00 11,5 8,4 - - 57 31 81 44 W 1028,1 8 0,0
22.10.2018 16:00:00 11,4 8,0 - - 61 33 85 46 WSW 1028,6 7 0,0
22.10.2018 15:00:00 11,3 8,1 - - 63 34 83 45 WSW 1029,2 8 0,0
22.10.2018 14:00:00 11,3 8,0 - - 57 31 76 41 WSW 1029,5 7 0,0
22.10.2018 13:00:00 11,4 7,9 - - 54 29 74 40 WSW 1030,5 9 0,0
22.10.2018 12:00:00 11,0 8,0 - - 50 27 74 40 WSW 1031,3 11 0,0
22.10.2018 11:00:00 11,2 6,9 - - 55 30 72 39 WSW 1031,3 22 0,0
22.10.2018 10:00:00 10,7 7,7 10,7 11,2 48 26 70 38 W 1031,2 10 0,0
22.10.2018 09:00:00 10,6 8,2 - - 50 27 68 37 WSW 1031,2 8 0,0
22.10.2018 08:00:00 10,5 7,5 - - 44 24 65 35 WSW 1031,2 9 0,0
22.10.2018 07:00:00 10,5 5,8 - - 42 23 55 30 W 1031,6 14 0,0
22.10.2018 06:00:00 10,1 5,8 - - 44 24 57 31 W 1031,7 9 0,0
22.10.2018 05:00:00 9,7 5,3 - - 37 20 54 29 W 1031,4 14 0,0
22.10.2018 04:00:00 9,2 5,9 - - 41 22 55 30 W 1031,2 11 0,0
22.10.2018 03:00:00 9,6 4,8 - - 42 23 59 32 W 1030,9 11 0,0
22.10.2018 02:00:00 9,3 5,2 - - 48 26 67 36 W 1030,5 13 0,0
22.10.2018 01:00:00 9,0 5,2 - - 46 25 70 38 W 1030,2 14 0,0
22.10.2018 00:00:00 9,2 4,5 - - 44 24 65 35 W 1029,7 9 0,0
21.10.2018 23:00:00 9,1 3,6 - - 42 23 67 36 W 1029,1 14 0,0
21.10.2018 22:00:00 8,9 2,7 - - 46 25 65 35 W 1028,3 13 0,2
21.10.2018 21:00:00 8,2 5,1 - - 44 24 74 40 W 1027,9 12 0,0
21.10.2018 20:00:00 9,2 2,0 - - 46 25 65 35 W 1027,4 14 0,0
21.10.2018 19:00:00 9,4 3,1 - - 48 26 67 36 W 1026,5 14 0,0
21.10.2018 18:00:00 8,8 3,7 - - 46 25 76 41 W 1025,5 18 0,0
21.10.2018 17:00:00 9,9 4,7 - - 52 28 68 37 W 1024,5 20 0,0
21.10.2018 16:00:00 9,2 7,2 - - 50 27 76 41 W 1023,9 12 0,2
21.10.2018 15:00:00 10,6 4,5 - - 48 26 63 34 W 1023,5 25 0,0
21.10.2018 14:00:00 10,7 5,0 - - 48 26 61 33 W 1023,0 11 0,0
21.10.2018 13:00:00 10,6 5,6 - - 42 23 57 31 W 1022,3 15 0,0
21.10.2018 12:00:00 10,6 6,1 - - 39 21 57 31 W 1021,7 14 0,0
21.10.2018 11:00:00 10,1 7,9 - - 34 18 59 32 WNW 1021,0 12 0,0
21.10.2018 10:00:00 10,6 8,7 10,9 11,2 41 22 59 32 W 1019,7 9 2,6
21.10.2018 09:00:00 9,7 7,7 - - 46 25 59 32 SW 1019,3 3,5 0,2
21.10.2018 08:00:00 11,1 9,3 - - 39 21 52 28 SW 1018,6 11 0,0
21.10.2018 07:00:00 10,7 8,6 - - 37 20 46 25 SW 1018,8 10 0,0
21.10.2018 06:00:00 10,3 8,2 - - 31 17 - - SW 1018,3 15 0,2
21.10.2018 05:00:00 9,8 8,7 - - 29 16 - - SW 1018,7 10 0,2
21.10.2018 04:00:00 8,3 7,0 - - 29 16 48 26 W 1019,2 9 1,2
21.10.2018 03:00:00 9,9 9,2 - - 28 15 46 25 W 1019,2 3,4 0,8
21.10.2018 02:00:00 10,1 9,7 - - 35 19 50 27 W 1019,3 3,2 1,2
21.10.2018 01:00:00 11,5 11,3 - - 21 11 - - WSW 1018,8 1,9 0,4
21.10.2018 00:00:00 11,4 11,2 - - 22 12 - - W 1019,1 6 0,4
20.10.2018 23:00:00 12,4 12,2 - - 35 19 52 28 SW 1018,9 4,4 0,4
20.10.2018 22:00:00 12,4 12,2 - - 41 22 52 28 SW 1019,0 1,4 0,2
20.10.2018 21:00:00 12,3 12,2 - - 39 21 52 28 SSW 1019,3 1,8 0,2
20.10.2018 20:00:00 12,4 12,2 - - 39 21 50 27 SSW 1019,4 2,5 0,0
20.10.2018 19:00:00 12,4 12,3 - - 39 21 54 29 SW 1019,4 2,2 0,0
20.10.2018 18:00:00 12,4 12,3 - - 41 22 50 27 SSW 1019,1 1,4 0,0
20.10.2018 17:00:00 12,5 12,3 - - 37 20 48 26 SSW 1019,3 1,9 0,0
20.10.2018 16:00:00 12,6 12,4 - - 35 19 50 27 SSW 1019,3 1,9 0,0
20.10.2018 15:00:00 12,6 12,4 - - 39 21 52 28 SSW 1019,2 3,8 0,0
20.10.2018 14:00:00 12,6 12,4 - - 42 23 59 32 SSW 1019,2 1,3 0,0
20.10.2018 13:00:00 12,5 12,3 - - 41 22 52 28 SSW 1019,2 3,0 0,0
20.10.2018 12:00:00 12,5 12,3 - - 39 21 52 28 SSW 1019,4 4,3 0,0
20.10.2018 11:00:00 12,4 12,2 - - 39 21 52 28 SSW 1019,0 4,3 0,0
20.10.2018 10:00:00 12,3 12,1 10,7 11,2 39 21 52 28 SSW 1018,9 5 0,2
20.10.2018 09:00:00 12,1 11,9 - - 41 22 54 29 SSW 1018,1 2,8 0,6
20.10.2018 08:00:00 12,3 12,0 - - 41 22 55 30 SSW 1018,0 4,6 0,0
20.10.2018 07:00:00 12,4 12,2 - - 44 24 59 32 SSW 1017,3 2,6 0,0
20.10.2018 06:00:00 12,4 12,2 - - 44 24 57 31 SSW 1017,7 2,5 0,0
20.10.2018 05:00:00 12,4 12,1 - - 42 23 57 31 SSW 1018,0 4,2 0,0
20.10.2018 04:00:00 11,9 11,5 - - 37 20 48 26 S 1018,4 2,2 0,0
20.10.2018 03:00:00 11,1 10,5 - - 31 17 46 25 S 1019,3 1,5 0,0
20.10.2018 02:00:00 10,3 8,7 - - 26 14 - - S 1020,3 20 0,0
20.10.2018 01:00:00 8,2 7,0 - - 16 9 - - S 1020,8 19 0,0
20.10.2018 00:00:00 7,3 5,7 - - 16 9 - - S 1021,3 16 0,0
19.10.2018 23:00:00 7,4 5,9 - - 18 10 - - S 1021,7 19 0,0
19.10.2018 22:00:00 6,4 5,2 - - 18 10 - - S 1021,9 18 0,0
19.10.2018 21:00:00 9,8 6,6 - - 21 11 - - SW 1022,1 16 0,0
19.10.2018 20:00:00 9,7 6,5 - - 21 11 - - SW 1021,8 15 0,0
19.10.2018 19:00:00 10,0 7,0 - - 16 9 - - SW 1021,4 16 0,0
19.10.2018 18:00:00 9,9 6,9 - - 13 7 - - WSW 1020,8 10 0,0
19.10.2018 17:00:00 11,1 6,9 - - 18 10 - - W 1020,8 12 0,0
19.10.2018 16:00:00 11,2 7,0 - - 26 14 - - W 1021,0 9 0,0
19.10.2018 15:00:00 11,5 8,0 - - 26 14 - - W 1020,5 14 0,0
19.10.2018 14:00:00 10,0 7,6 - - 37 20 52 28 WSW 1020,1 6 0,2
19.10.2018 13:00:00 11,8 7,2 - - 28 15 - - W 1018,8 13 0,0
19.10.2018 12:00:00 11,8 8,1 - - 29 16 46 25 W 1017,7 14 0,0
19.10.2018 11:00:00 11,4 6,2 - - 34 18 46 25 W 1016,9 14 0,0
19.10.2018 10:00:00 11,2 7,9 10,7 11,2 29 16 - - W 1015,9 8 0,0
19.10.2018 09:00:00 10,7 8,3 - - 29 16 - - W 1015,0 9 0,0
19.10.2018 08:00:00 10,7 9,7 - - 35 19 68 37 WSW 1013,9 13 0,6
19.10.2018 07:00:00 10,8 10,4 - - 52 28 67 36 SSW 1013,2 1,7 2,4
19.10.2018 06:00:00 10,1 9,7 - - 46 25 63 34 S 1013,6 1,6 2,2
19.10.2018 05:00:00 9,7 9,1 - - 44 24 59 32 S 1014,1 1,9 0,8
19.10.2018 04:00:00 9,8 8,5 - - 46 25 63 34 S 1014,9 5 0,4
19.10.2018 03:00:00 10,2 7,6 - - 41 22 54 29 S 1015,9 14 0,0
19.10.2018 02:00:00 10,4 7,0 - - 42 23 59 32 S 1017,2 30 0,0
19.10.2018 01:00:00 10,6 7,1 - - 44 24 57 31 S 1018,1 14 0,0
19.10.2018 00:00:00 10,5 7,1 - - 41 22 54 29 S 1018,8 17 0,0
18.10.2018 23:00:00 10,6 6,9 - - 41 22 52 28 S 1019,2 27 0,0
18.10.2018 22:00:00 10,3 6,7 - - 35 19 48 26 S 1020,2 27 0,0
18.10.2018 21:00:00 10,5 7,0 - - 35 19 46 25 S 1021,0 22 0,0
18.10.2018 20:00:00 9,6 7,7 - - 29 16 52 28 S 1021,5 17 0,0
18.10.2018 19:00:00 10,3 7,5 - - 41 22 54 29 SSW 1021,9 17 0,0
18.10.2018 18:00:00 9,6 7,8 - - 29 16 50 27 S 1022,4 16 0,0
18.10.2018 17:00:00 10,7 7,9 - - 34 18 48 26 SSW 1022,8 20 0,0
18.10.2018 16:00:00 10,9 8,0 - - 34 18 46 25 S 1023,1 19 0,0
18.10.2018 15:00:00 10,6 6,7 - - 35 19 48 26 SSW 1023,5 28 0,0
18.10.2018 14:00:00 10,8 7,3 - - 35 19 - - SSW 1024,3 40 0,0
18.10.2018 13:00:00 10,4 6,8 - - 24 13 - - S 1024,8 35 0,0
18.10.2018 12:00:00 10,0 7,3 - - 28 15 - - S 1025,4 30 0,0
18.10.2018 11:00:00 10,3 6,7 - - 35 19 - - SW 1025,6 35 0,0
18.10.2018 10:00:00 10,3 6,6 10,7 11,2 24 13 - - SSW 1025,7 40 0,0
18.10.2018 09:00:00 10,0 6,0 - - 31 17 - - SW 1025,7 35 0,0
18.10.2018 08:00:00 10,2 4,9 - - 24 13 - - WSW 1025,6 21 0,0
18.10.2018 07:00:00 10,3 3,9 - - 28 15 - - WSW 1025,4 40 0,0
18.10.2018 06:00:00 10,4 5,2 - - 26 14 - - WSW 1025,2 20 0,0

tt = Température de l'air
td = dewpoint
tt -20cm = Température de l'air -20cm
tt -100cm = Température de l'air -100cm
ff = Vitesse du vent
fx = gusts
dd = Direction du vent
ppp = reduced air pressure
vv = visibility
rr = Quantités de précipitations

stations d'obs. à proximité